Total_Precipitation_Accumulation
0.43 0.41 0.49 0.72 0.82 0.74 0.79 0.89 1.15 1.04 0.92 0.93 0.91 0.96 0.98 0.97 0.99 1.01 1.06 1.06 1.03 1.07 1.14 1.27 1.34 1.36 1.41 1.46 1.49 1.59 1.67 1.69 1.70 1.58 1.46 1.42 1.45 1.29 1.28 1.37 1.38 1.42 1.48 1.54
0.27 0.25 0.35 0.60 0.72 0.73 0.71 0.71 0.73 0.66 0.67 0.60 0.59 0.65 0.72 0.78 0.74 0.76 0.84 0.85 0.84 0.85 0.89 0.98 0.92 0.95 1.00 1.16 1.33 1.49 1.54 1.50 1.47 1.42 1.43 1.40 1.33 1.28 1.26 1.28 1.32 1.34 1.35 1.50
0.38 0.28 0.39 0.63 0.64 0.68 0.54 0.40 0.39 0.48 0.50 0.43 0.44 0.54 0.62 0.71 0.73 0.71 0.72 0.74 0.77 0.78 0.76 0.80 0.80 0.83 0.88 0.98 1.15 1.28 1.34 1.29 1.20 1.17 1.21 1.25 1.23 1.26 1.28 1.27 1.27 1.30 1.25 1.34
0.55 0.51 0.75 0.83 0.65 0.56 0.49 0.36 0.28 0.29 0.32 0.33 0.37 0.48 0.56 0.62 0.71 0.67 0.63 0.64 0.69 0.71 0.70 0.74 0.81 0.87 0.94 1.00 1.02 1.11 1.21 1.20 1.15 1.10 1.07 1.09 1.12 1.19 1.28 1.24 1.20 1.24 1.21 1.16
0.73 0.70 0.70 0.65 0.48 0.46 0.55 0.56 0.33 0.27 0.26 0.26 0.29 0.41 0.49 0.54 0.58 0.53 0.49 0.47 0.48 0.51 0.54 0.60 0.68 0.75 0.78 0.80 0.81 0.86 0.93 0.98 0.97 0.91 0.96 1.04 1.04 1.18 1.27 1.19 1.17 1.14 1.15 1.11
0.81 0.82 0.84 0.62 0.34 0.30 0.45 0.74 0.42 0.28 0.21 0.19 0.26 0.42 0.43 0.42 0.42 0.37 0.35 0.33 0.31 0.35 0.38 0.44 0.52 0.66 0.71 0.67 0.62 0.65 0.71 0.74 0.80 0.81 0.85 0.93 1.04 1.15 1.19 1.17 1.16 1.10 1.09 1.05
0.87 1.01 1.01 0.69 0.39 0.36 0.69 0.81 0.44 0.29 0.22 0.21 0.27 0.30 0.31 0.32 0.35 0.29 0.30 0.31 0.29 0.31 0.36 0.41 0.48 0.57 0.61 0.64 0.60 0.60 0.66 0.66 0.70 0.73 0.79 0.92 1.02 0.99 0.96 0.99 1.04 1.05 1.08 1.02
1.07 1.31 1.36 0.85 0.66 0.69 0.67 0.46 0.34 0.25 0.24 0.25 0.27 0.24 0.25 0.27 0.27 0.23 0.25 0.28 0.28 0.30 0.34 0.43 0.46 0.47 0.50 0.51 0.52 0.55 0.58 0.62 0.61 0.61 0.66 0.74 0.82 0.91 0.90 0.90 0.94 0.92 0.92 0.92
1.17 1.19 1.00 0.76 0.68 0.60 0.51 0.42 0.31 0.27 0.25 0.25 0.25 0.24 0.25 0.23 0.22 0.19 0.21 0.24 0.28 0.34 0.40 0.45 0.48 0.46 0.45 0.46 0.49 0.55 0.59 0.62 0.59 0.57 0.59 0.65 0.73 0.84 0.92 0.94 0.92 0.89 0.81 0.77
0.65 0.66 0.61 0.49 0.42 0.42 0.40 0.38 0.30 0.26 0.25 0.26 0.26 0.25 0.24 0.21 0.20 0.21 0.21 0.23 0.27 0.35 0.39 0.45 0.46 0.46 0.46 0.46 0.47 0.51 0.57 0.62 0.62 0.63 0.66 0.67 0.69 0.75 0.88 0.94 0.86 0.78 0.77 0.77
0.48 0.44 0.44 0.38 0.34 0.35 0.35 0.31 0.27 0.25 0.26 0.28 0.28 0.26 0.24 0.24 0.25 0.24 0.24 0.24 0.27 0.33 0.38 0.43 0.49 0.47 0.47 0.46 0.45 0.48 0.54 0.59 0.59 0.63 0.68 0.67 0.63 0.63 0.70 0.77 0.83 0.85 0.83 0.84
0.47 0.35 0.39 0.41 0.35 0.32 0.32 0.28 0.26 0.28 0.32 0.31 0.27 0.25 0.24 0.24 0.30 0.31 0.30 0.30 0.31 0.32 0.37 0.39 0.44 0.50 0.51 0.55 0.53 0.52 0.54 0.58 0.59 0.62 0.67 0.66 0.63 0.63 0.65 0.65 0.74 0.77 0.77 0.79
0.32 0.25 0.27 0.30 0.27 0.25 0.25 0.22 0.23 0.25 0.31 0.33 0.28 0.27 0.23 0.23 0.29 0.33 0.34 0.37 0.41 0.41 0.41 0.38 0.40 0.45 0.49 0.56 0.59 0.63 0.62 0.63 0.64 0.64 0.63 0.62 0.64 0.67 0.66 0.62 0.61 0.62 0.63 0.62
0.18 0.18 0.22 0.23 0.23 0.20 0.20 0.19 0.22 0.25 0.27 0.29 0.28 0.26 0.25 0.25 0.29 0.31 0.33 0.39 0.42 0.42 0.43 0.44 0.43 0.46 0.54 0.60 0.63 0.69 0.75 0.81 0.75 0.69 0.66 0.63 0.64 0.70 0.71 0.71 0.67 0.58 0.57 0.61
0.15 0.17 0.22 0.20 0.20 0.19 0.18 0.19 0.21 0.22 0.25 0.26 0.24 0.26 0.29 0.32 0.32 0.34 0.33 0.34 0.36 0.36 0.36 0.42 0.43 0.44 0.51 0.53 0.57 0.63 0.71 0.77 0.80 0.78 0.75 0.72 0.73 0.80 0.79 0.69 0.63 0.62 0.59 0.61
0.20 0.18 0.17 0.16 0.17 0.16 0.14 0.17 0.20 0.20 0.22 0.23 0.24 0.30 0.36 0.39 0.37 0.38 0.35 0.30 0.30 0.31 0.33 0.40 0.43 0.43 0.47 0.48 0.48 0.54 0.57 0.66 0.75 0.79 0.80 0.80 0.83 0.85 0.82 0.74 0.64 0.62 0.60 0.60
0.21 0.24 0.24 0.20 0.18 0.18 0.18 0.18 0.18 0.19 0.20 0.19 0.24 0.32 0.37 0.38 0.37 0.38 0.38 0.35 0.34 0.33 0.34 0.39 0.44 0.45 0.47 0.49 0.49 0.51 0.51 0.54 0.62 0.66 0.69 0.71 0.76 0.81 0.83 0.80 0.73 0.68 0.66 0.65
0.19 0.23 0.26 0.25 0.22 0.21 0.22 0.22 0.21 0.20 0.20 0.20 0.23 0.33 0.39 0.41 0.42 0.44 0.45 0.43 0.39 0.35 0.35 0.40 0.42 0.44 0.47 0.52 0.56 0.57 0.55 0.54 0.56 0.60 0.62 0.65 0.70 0.72 0.76 0.79 0.78 0.75 0.74 0.75
0.19 0.20 0.21 0.21 0.18 0.19 0.21 0.22 0.24 0.25 0.26 0.24 0.25 0.33 0.41 0.48 0.53 0.51 0.49 0.49 0.48 0.48 0.48 0.51 0.56 0.48 0.48 0.55 0.60 0.57 0.55 0.54 0.54 0.60 0.62 0.67 0.70 0.68 0.70 0.71 0.70 0.69 0.68 0.71
0.25 0.28 0.29 0.28 0.22 0.19 0.20 0.23 0.24 0.26 0.31 0.31 0.30 0.32 0.41 0.49 0.52 0.50 0.49 0.50 0.55 0.62 0.61 0.63 0.63 0.57 0.54 0.58 0.64 0.59 0.59 0.60 0.63 0.67 0.65 0.64 0.67 0.69 0.68 0.67 0.68 0.68 0.69 0.72
0.34 0.40 0.39 0.35 0.27 0.22 0.20 0.21 0.23 0.27 0.31 0.30 0.32 0.36 0.45 0.54 0.55 0.53 0.52 0.53 0.54 0.59 0.62 0.68 0.67 0.67 0.66 0.70 0.74 0.68 0.67 0.67 0.70 0.74 0.75 0.74 0.74 0.73 0.72 0.72 0.73 0.75 0.77 0.78
0.37 0.38 0.35 0.34 0.30 0.26 0.24 0.23 0.23 0.24 0.27 0.30 0.32 0.37 0.47 0.58 0.62 0.59 0.56 0.59 0.62 0.69 0.67 0.67 0.65 0.74 0.82 0.81 0.68 0.68 0.71 0.74 0.76 0.77 0.79 0.81 0.84 0.84 0.81 0.82 0.83 0.83 0.83 0.85
0.34 0.34 0.38 0.40 0.38 0.34 0.31 0.29 0.30 0.29 0.31 0.34 0.37 0.41 0.47 0.53 0.63 0.70 0.61 0.55 0.57 0.66 0.63 0.66 0.71 0.79 0.85 0.77 0.71 0.70 0.70 0.68 0.70 0.73 0.79 0.85 0.87 0.90 0.92 0.92 0.90 0.88 0.91 0.95
0.28 0.30 0.36 0.40 0.40 0.39 0.40 0.39 0.40 0.40 0.39 0.39 0.41 0.44 0.47 0.51 0.56 0.65 0.62 0.59 0.64 0.68 0.60 0.68 0.78 0.83 0.81 0.67 0.70 0.76 0.77 0.74 0.74 0.79 0.85 0.88 0.88 0.90 0.94 0.98 1.00 0.98 1.00 1.05
0.25 0.25 0.29 0.36 0.39 0.39 0.38 0.38 0.39 0.41 0.43 0.42 0.44 0.47 0.49 0.52 0.59 0.66 0.63 0.58 0.65 0.71 0.68 0.78 0.86 0.85 0.78 0.76 0.77 0.81 0.86 0.89 0.92 0.95 0.93 0.94 0.94 0.97 0.99 1.03 1.06 1.08 1.07 1.07
0.25 0.23 0.26 0.32 0.35 0.35 0.35 0.35 0.37 0.41 0.44 0.43 0.44 0.49 0.52 0.54 0.58 0.67 0.71 0.66 0.66 0.72 0.75 0.79 0.83 0.85 0.83 0.90 0.93 0.93 0.93 0.95 0.94 0.91 0.92 0.95 0.96 0.96 0.97 0.98 1.00 1.04 1.06 1.05
0.26 0.25 0.26 0.30 0.32 0.31 0.33 0.36 0.40 0.43 0.46 0.47 0.48 0.49 0.50 0.53 0.58 0.66 0.74 0.75 0.70 0.71 0.78 0.85 0.87 0.88 0.89 0.93 0.96 1.00 1.01 1.01 0.99 0.97 0.96 1.00 1.04 1.06 1.03 1.01 1.03 1.05 1.08 1.11